Location: Boston
(42.3580°N, 71.0600°W)
Time: 01:24:01
(UTC-05:00)

Vanguard 2 - All Passes

Search period start: 14 December 2017 00:00
Search period end: 24 December 2017 00:00
Orbit: 553 x 2939 km, 32.9° (Epoch: 13 December)

Date Brightness Start Highest point End Pass type
(mag) Time Alt. Az. Time Alt. Az. Time Alt. Az.
14 Dec - 12:11:54 10° S 12:14:54 12° SSE 12:17:33 10° SE daylight
14 Dec - 14:17:18 10° SW 14:23:52 24° SSE 14:28:31 10° ESE daylight
14 Dec - 16:26:42 10° WSW 16:32:04 29° S 16:36:00 10° ESE daylight
14 Dec - 18:36:35 10° WSW 18:39:36 17° SSW 18:42:19 10° SSE visible
15 Dec - 12:26:49 10° SSW 12:32:59 17° SSE 12:37:45 10° ESE daylight
15 Dec - 14:34:43 10° SW 14:41:53 29° S 14:46:46 10° ESE daylight
15 Dec - 16:44:41 10° WSW 16:49:59 29° S 16:53:52 10° SE visible
15 Dec - 18:55:14 10° SW 18:57:22 13° SSW 18:59:22 10° S visible
16 Dec - 12:43:09 10° SSW 12:51:03 22° SSE 12:56:42 10° ESE daylight
16 Dec - 14:52:23 10° SW 14:59:53 33° S 15:04:51 10° ESE daylight
16 Dec - 17:02:48 10° WSW 17:07:51 27° SSW 17:11:39 10° SE visible
17 Dec - 10:54:16 10° S 10:59:36 13° SSE 11:04:07 10° SE daylight
17 Dec - 13:00:08 10° SW 13:09:07 28° SSE 13:15:12 10° ESE daylight
17 Dec - 15:10:16 10° WSW 15:17:51 36° S 15:22:51 10° ESE daylight
17 Dec - 17:21:01 10° WSW 17:25:41 24° SSW 17:29:16 10° SE visible
18 Dec - 11:09:20 10° SSW 11:17:40 19° SSE 11:24:03 10° ESE daylight
18 Dec - 13:17:28 10° SW 13:27:10 33° SSE 13:33:28 10° ESE daylight
18 Dec - 15:28:16 10° WSW 15:35:49 37° S 15:40:45 10° ESE daylight
18 Dec - 17:39:24 10° WSW 17:43:26 19° SSW 17:46:40 10° SSE visible
19 Dec - 11:25:34 10° SSW 11:35:44 25° SSE 11:43:01 10° ESE daylight
19 Dec - 13:35:06 10° SW 13:45:12 38° S 13:51:34 10° ESE daylight
19 Dec - 15:46:22 10° WSW 15:53:43 36° SSW 15:58:34 10° SE daylight
19 Dec - 17:58:06 10° WSW 18:01:07 15° SSW 18:03:40 10° S visible
20 Dec - 09:36:58 10° S 09:43:46 14° SSE 09:49:36 10° ESE daylight
20 Dec - 11:42:24 10° SW 11:53:47 31° SSE 12:01:33 10° ESE daylight
20 Dec - 13:52:57 10° WSW 14:03:13 42° S 14:09:35 10° ESE daylight
20 Dec - 16:04:33 10° WSW 16:11:35 33° SSW 16:16:18 10° SE daylight
20 Dec - 18:18:17 10° SW 18:18:43 10° SW 18:19:07 10° SSW visible
21 Dec - 09:51:51 10° S 10:01:47 20° SSE 10:09:40 10° ESE daylight
21 Dec - 11:59:39 10° SW 12:11:50 37° SSE 12:19:50 10° ESE daylight
21 Dec - 14:10:56 10° WSW 14:21:12 44° S 14:27:31 10° ESE daylight
21 Dec - 16:22:50 10° WSW 16:29:21 28° SSW 16:33:53 10° SE daylight
22 Dec - 10:07:52 10° SSW 10:19:47 26° SSE 10:28:45 10° ESE daylight
22 Dec - 12:17:11 10° SW 12:29:54 42° S 12:37:59 10° ESE daylight
22 Dec - 14:29:01 10° WSW 14:39:10 44° S 14:45:24 10° ESE daylight
22 Dec - 16:41:16 10° WSW 16:47:03 23° SSW 16:51:14 10° SSE visible
23 Dec - 08:20:21 10° SSE 08:27:30 14° SE 08:33:54 10° ESE daylight
23 Dec - 10:24:31 10° SSW 10:37:49 32° SSE 10:47:22 10° E daylight
23 Dec - 12:34:57 10° WSW 12:47:56 47° S 12:56:03 10° ESE daylight
23 Dec - 14:47:13 10° WSW 14:57:04 42° SSW 15:03:11 10° SE daylight
23 Dec - 16:59:58 10° WSW 17:04:39 18° SW 17:08:15 10° S visible
